Location: Curupao
(10.4996°N, 66.6442°W)
Time: 22:46:29
(UTC+00:00)

CZ-2C R/B - Pass Details

Date: 23 May 2024
Orbit: 665 x 780 km, 98.4° (Epoch: 25 June)

Event Time Altitude Azimuth Distance (km) Brightness Sun altitude
Rises 08:18:54 0° 354° (N) 3,034 5.9 -24.3°
Reaches altitude 10° 08:21:24 10° 343° (NNW) 2,106 4.9 -23.7°
Enters shadow 08:23:38 22° 319° (NW) 1,442 3.8 -23.2°
